[[{"header":{"parameterUnit":"m.s-1","parameterCategory":1,"la1":30.2991,"la2":30.254,"lo1":-89.0895,"lo2":-89.0444,"dy":0.0017,"dx":0.0017,"nx":28,"ny":28,"refTime":"2023-08-23T09:00:00:Z","depth":0,"parameterNumber":2,"parameterNumberName":"U-component_of_WINDS"},"data":[0,0,0,0,0,0,0,0,0,0,0,0,0,0,0,0,0,0,0,0,0,0,0,0,0,0,0,0,0,0,0,0,0,0,0,0,0,0,0,0,0,0,0,0,0,0,0,0,0,0,0,0,0,0,0,0,0,0,-2.4144,-2.4144,0,-2.4155,-2.4155,-2.4155,-2.4119,-2.4118,-2.4117,-2.4115,-2.4128,-2.413,-2.4131,0,0,0,0,0,0,0,0,0,0,0,0,0,-2.4094,-2.4095,-2.4144,-2.4144,-2.4144,-2.4155,-2.4155,-2.4155,-2.4119,-2.4118,-2.4116,-2.4115,-2.4128,-2.4129,-2.4131,0,0,0,0,0,0,0,0,0,0,0,0,0,-2.4111,-2.4095,-2.4144,-2.4127,-2.4126,-2.4155,-2.4155,-2.4155,-2.4119,-2.4118,-2.4116,-2.4114,-2.4127,-2.4129,-2.4131,-2.4177,0,0,-2.4138,-2.4138,0,0,0,0,0,0,0,0,-2.411,-2.4113,-2.413,-2.4128,-2.4127,-2.4134,-2.4142,-2.4163,-2.412,-2.4122,-2.4115,-2.4114,-2.4131,-2.4133,-2.4139,-2.4178,-2.4178,-2.4138,-2.4139,-2.414,-2.414,0,0,0,0,0,0,0,-2.4109,-2.4112,-2.4148,-2.413,-2.4128,-2.412,-2.4121,-2.4146,-2.4136,-2.4121,-2.4119,-2.4121,-2.413,-2.4137,-2.4139,-2.4178,-2.4138,-2.4139,-2.4141,-2.4142,-2.4257,-2.4258,0,0,0,0,0,0,-2.411,-2.4112,-2.4148,-2.4148,-2.4114,-2.4122,-2.4123,-2.4133,-2.4135,-2.4134,-2.4122,-2.4119,-2.4134,-2.4137,-2.4139,-2.4193,-2.414,-2.4142,-2.4143,-2.4255,-2.4257,-2.4259,0,0,0,0,0,0,-2.4109,-2.4113,-2.4147,-2.4129,-2.4133,-2.4125,-2.4137,-2.4134,-2.4141,-2.4136,-2.4134,-2.413,-2.4133,-2.4136,-2.4168,-2.4193,-2.4143,-2.4145,-2.4253,-2.4256,-2.4258,-2.4302,0,0,0,0,0,0,-2.4107,-2.4113,-2.413,-2.413,-2.4134,-2.4175,-2.4138,-2.4136,-2.4144,-2.414,-2.4143,-2.4142,-2.4132,-2.4165,-2.417,-2.4195,-2.4146,-2.425,-2.4254,-2.4257,-2.4298,-2.4306,-2.4312,0,0,0,0,0,-2.4106,-2.4142,-2.4131,-2.4135,-2.4155,-2.4177,-2.4179,-2.4167,-2.4146,-2.4163,-2.4161,-2.4142,-2.419,-2.4169,-2.4174,-2.42,-2.4249,-2.4253,-2.4257,-2.4295,-2.4304,-2.4312,0,0,0,0,0,0,-2.4145,-2.4141,-2.4129,-2.4166,-2.4172,-2.4171,-2.4192,-2.4177,-2.4189,-2.4185,-2.4169,-2.417,-2.4205,-2.4206,-2.4182,-2.4245,-2.4216,-2.4221,-2.4243,-2.4252,-2.4259,-2.4258,-2.4148,0,0,0,0,0,-2.4158,-2.4175,-2.4172,-2.4205,-2.4208,-2.42,-2.4209,-2.4199,-2.4205,-2.4207,-2.4206,-2.4213,-2.423,-2.4241,-2.4256,-2.4299,-2.4299,-2.4319,-2.4326,-2.4332,-2.4337,-2.436,-2.4369,-2.4273,-2.4273,-2.4273,0,0,-2.4184,-2.4185,-2.4197,-2.4213,-2.4216,-2.4235,-2.4202,-2.4224,-2.4238,-2.421,-2.424,-2.424,-2.4247,-2.4285,-2.4301,-2.4286,-2.4364,-2.4337,-2.4342,-2.4344,-2.4365,-2.4375,-2.4383,-2.4275,-2.4275,-2.4274,0,0,-2.4243,-2.4245,-2.4273,-2.4277,-2.4283,-2.4277,-2.4284,-2.4285,-2.4284,-2.4314,-2.4294,-2.4311,-2.434,-2.4346,-2.4353,-2.4416,-2.4399,-2.4421,-2.4458,-2.4481,-2.4488,-2.4495,-2.4518,-2.4526,-2.4426,-2.4426,-2.4426,0,-2.4275,-2.4303,-2.4289,-2.4312,-2.432,-2.4296,-2.4325,-2.433,-2.4341,-2.4347,-2.4331,-2.4367,-2.437,-2.4409,-2.4424,-2.4431,-2.4439,-2.442,-2.4488,-2.4495,-2.4501,-2.4522,-2.4531,-2.4429,-2.4428,-2.4428,-2.4428,0,-2.4343,-2.4363,-2.4385,-2.4396,-2.4406,-2.4432,-2.4423,-2.4436,-2.4425,-2.4422,-2.4453,-2.4456,-2.4471,-2.448,-2.447,-2.4518,-2.4509,-2.4491,-2.4461,-2.4513,-2.4533,-2.4541,-2.4432,-2.4431,-2.4431,-2.443,0,0,-2.4425,-2.4428,-2.4437,-2.4442,-2.4447,-2.4462,-2.4488,-2.4503,-2.4514,-2.4523,-2.4545,-2.4571,-2.4554,-2.4562,-2.4553,-2.4573,-2.4623,-2.4552,-2.4552,-2.4565,-2.4677,-2.4691,-2.47,-2.4613,-2.4614,-2.4616,-2.4677,0,-2.4483,-2.4525,-2.4514,-2.4557,-2.4576,-2.4554,-2.4577,-2.4583,-2.4581,-2.4597,-2.4595,-2.4614,-2.4591,-2.4595,-2.4614,-2.4613,-2.4645,-2.4609,-2.4633,-2.4634,-2.4631,-2.471,-2.4724,-2.4782,-2.4684,-2.4686,-2.4687,0,-2.4555,-2.4566,-2.4611,-2.4614,-2.4622,-2.4642,-2.4656,-2.4671,-2.4678,-2.4676,-2.4685,-2.4672,-2.4699,-2.467,-2.4706,-2.4682,-2.4691,-2.4693,-2.4695,-2.4696,-2.4663,-2.4714,-2.48,-2.4808,-2.4699,-2.4698,-2.4697,0,-2.4611,-2.4637,-2.4668,-2.4673,-2.4677,-2.4692,-2.4694,-2.47,-2.471,-2.4723,-2.4729,-2.4745,-2.4753,-2.4766,-2.4758,-2.4738,-2.4797,-2.4767,-2.4795,-2.4796,-2.4808,-2.4807,-2.4896,-2.4815,-2.4815,-2.4815,-2.4815,0,-2.4676,-2.4704,-2.4693,-2.4711,-2.4743,-2.4731,-2.4763,-2.4763,-2.4768,-2.4787,-2.477,-2.4789,-2.4777,-2.4796,-2.479,-2.4822,-2.4826,-2.4825,-2.4823,-2.4826,-2.4826,-2.4831,-2.4827,-2.4817,-2.4817,-2.4816,-2.4816,0,-2.4743,-2.4736,-2.4768,-2.4769,-2.4771,-2.4794,-2.4796,-2.4814,-2.4811,-2.4836,-2.4841,-2.4837,-2.4857,-2.4851,-2.4873,-2.4869,-2.4909,-2.4903,-2.4907,-2.4905,-2.4934,-2.4931,-2.503,-2.5042,-2.4953,-2.4954,-2.4955,0,-2.4784,-2.4806,-2.481,-2.4821,-2.4825,-2.4843,-2.4854,-2.4843,-2.4855,-2.4866,-2.4883,-2.4902,-2.4916,-2.495,-2.4949,-2.4967,-2.496,-2.4993,-2.4962,-2.4965,-2.4961,-2.4959,-2.4962,-2.4999,-2.5,-2.5001,-2.5002,0,-2.4859,-2.4855,-2.487,-2.4885,-2.4898,-2.4909,-2.4918,-2.4929,-2.4919,-2.4933,-2.4954,-2.4965,-2.4988,-2.5007,-2.5023,-2.5027,-2.5013,-2.5012,-2.5019,-2.5022,-2.5024,-2.5024,-2.4923,-2.5009,-2.5008,-2.5008,-2.5007,-2.5007,-2.4915,-2.4933,-2.4939,-2.4957,-2.4963,-2.4973,-2.499,-2.4989,-2.5006,-2.5023,-2.5016,-2.504,-2.5048,-2.5068,-2.5074,-2.5094,-2.5081,-2.5092,-2.5095,-2.5098,-2.5101,-2.5021,-2.5097,-2.5096,-2.5096,-2.5096,-2.5096,0,-2.4989,-2.4992,-2.5009,-2.5022,-2.5037,-2.5022,-2.5033,-2.5046,-2.5067,-2.5075,-2.509,-2.5114,-2.5133,-2.5135,-2.5153,-2.5168,-2.5162,-2.5173,-2.5172,-2.5173,-2.5111,-2.5103,-2.5178,-2.5178,-2.5178,-2.5178,-2.5178,-2.5178,-2.5029,-2.506,-2.5056,-2.509,-2.5093,-2.5116,-2.5123,-2.5132,-2.5139,-2.5166,-2.5182,-2.5183,-2.5189,-2.5207,-2.5225,-2.5225,-2.5232,-2.5246,-2.5243,-2.5186,-2.5177,-2.517,-2.5162,-2.5247,-2.5247,-2.5303,-2.5304,-2.5304]},{"header":{"parameterUnit":"m.s-1","parameterCategory":1,"la1":30.2991,"la2":30.254,"lo1":-89.0895,"lo2":-89.0444,"dy":0.0017,"dx":0.0017,"nx":28,"ny":28,"refTime":"2023-08-23T09:00:00:Z","depth":0,"parameterNumber":3,"parameterNumberName":"V-component_of_WINDS"},"data":[0,0,0,0,0,0,0,0,0,0,0,0,0,0,0,0,0,0,0,0,0,0,0,0,0,0,0,0,0,0,0,0,0,0,0,0,0,0,0,0,0,0,0,0,0,0,0,0,0,0,0,0,0,0,0,0,0,0,3.3668,3.3668,0,3.3654,3.3654,3.3654,3.3651,3.3651,3.3651,3.3651,3.3634,3.3634,3.3633,0,0,0,0,0,0,0,0,0,0,0,0,0,3.3689,3.3689,3.3668,3.3668,3.3667,3.3654,3.3654,3.3654,3.3651,3.3651,3.3651,3.3651,3.3634,3.3634,3.3633,0,0,0,0,0,0,0,0,0,0,0,0,0,3.3678,3.3689,3.3668,3.3664,3.3664,3.3654,3.3654,3.3654,3.3651,3.3651,3.3651,3.3651,3.3635,3.3634,3.3633,3.3625,0,0,3.3631,3.363,0,0,0,0,0,0,0,0,3.3679,3.3677,3.3665,3.3665,3.3664,3.3654,3.3655,3.3644,3.3651,3.3656,3.3651,3.3651,3.3641,3.3639,3.3636,3.3624,3.3624,3.3631,3.363,3.363,3.3629,0,0,0,0,0,0,0,3.3679,3.3678,3.3662,3.3665,3.3664,3.3663,3.3661,3.3653,3.3647,3.3655,3.3655,3.3653,3.364,3.3637,3.3636,3.3623,3.3631,3.363,3.3629,3.3629,3.3605,3.3605,0,0,0,0,0,0,3.3681,3.3679,3.3663,3.3662,3.3672,3.3662,3.3661,3.3657,3.3647,3.3646,3.3653,3.3653,3.3638,3.3637,3.3635,3.3626,3.363,3.3629,3.3629,3.3605,3.3605,3.3605,0,0,0,0,0,0,3.3682,3.368,3.3663,3.367,3.3668,3.3662,3.3658,3.3657,3.3654,3.3646,3.3645,3.3651,3.3639,3.3637,3.3628,3.3625,3.3629,3.3628,3.3605,3.3605,3.3605,3.3607,0,0,0,0,0,0,3.3682,3.368,3.3677,3.367,3.3668,3.3657,3.3658,3.3657,3.3653,3.3653,3.3644,3.3643,3.3639,3.3629,3.3627,3.3624,3.3627,3.3606,3.3605,3.3605,3.3607,3.3607,3.3606,0,0,0,0,0,3.3683,3.3677,3.3677,3.3675,3.3664,3.3657,3.3655,3.3651,3.3652,3.3649,3.3645,3.3643,3.3626,3.3629,3.3626,3.3623,3.3606,3.3605,3.3605,3.3607,3.3607,3.3606,0,0,0,0,0,0,3.3683,3.3676,3.3676,3.3668,3.3663,3.3656,3.3652,3.3651,3.3645,3.3645,3.364,3.3638,3.363,3.3625,3.3628,3.3615,3.3616,3.3615,3.3618,3.3618,3.3617,3.3618,3.3627,0,0,0,0,0,3.3683,3.3678,3.3672,3.3665,3.3663,3.3658,3.3655,3.3652,3.3647,3.3644,3.3639,3.3633,3.3626,3.3622,3.3615,3.3606,3.3605,3.3603,3.3603,3.3603,3.3602,3.3597,3.3597,3.3604,3.3604,3.3604,0,0,3.368,3.3676,3.3673,3.3665,3.3661,3.3656,3.3656,3.365,3.3646,3.3643,3.3635,3.3631,3.3624,3.3615,3.3611,3.3612,3.36,3.3602,3.3602,3.3601,3.3597,3.3596,3.3596,3.3603,3.3603,3.3604,0,0,3.3674,3.3671,3.3665,3.3662,3.3656,3.3653,3.3652,3.3645,3.3643,3.3635,3.3633,3.3628,3.3616,3.3611,3.3607,3.3601,3.3599,3.3599,3.3597,3.3593,3.3593,3.3592,3.359,3.3589,3.3598,3.3598,3.3598,0,3.3672,3.3665,3.3662,3.3657,3.3654,3.3652,3.3646,3.3643,3.3635,3.3632,3.3633,3.3619,3.3614,3.3605,3.3604,3.36,3.3599,3.36,3.3593,3.3593,3.3592,3.359,3.3589,3.3598,3.3598,3.3598,3.3598,0,3.3663,3.3658,3.3654,3.3648,3.3644,3.3638,3.3635,3.3631,3.363,3.3627,3.3619,3.3613,3.3606,3.3604,3.3601,3.3594,3.3595,3.3594,3.3595,3.3591,3.3589,3.3589,3.3598,3.3598,3.3598,3.3598,0,0,3.3655,3.3649,3.3648,3.3645,3.3639,3.3635,3.3629,3.3623,3.3621,3.3615,3.361,3.3602,3.3602,3.3597,3.3595,3.3591,3.3587,3.3591,3.3591,3.3591,3.3579,3.3579,3.3579,3.3586,3.3586,3.3586,3.358,0,3.3649,3.364,3.3638,3.363,3.3625,3.3624,3.3619,3.3615,3.3612,3.3607,3.3604,3.3598,3.3598,3.3596,3.3592,3.3588,3.3585,3.3589,3.3581,3.3581,3.3583,3.3577,3.3577,3.3572,3.3579,3.3579,3.3579,0,3.3639,3.3635,3.3627,3.3623,3.3621,3.3616,3.3611,3.3607,3.3602,3.36,3.3596,3.3594,3.3588,3.359,3.3582,3.3585,3.3582,3.3579,3.3579,3.3578,3.3579,3.3576,3.357,3.357,3.3577,3.3578,3.3578,0,3.3635,3.3627,3.3622,3.3619,3.3614,3.3611,3.3609,3.3604,3.3601,3.3596,3.3594,3.3589,3.3585,3.3581,3.3578,3.3579,3.357,3.3571,3.3568,3.3568,3.3565,3.3565,3.3559,3.3564,3.3564,3.3564,3.3564,0,3.3627,3.3622,3.362,3.3616,3.3611,3.3609,3.3603,3.3601,3.3597,3.3593,3.3591,3.3587,3.3583,3.3578,3.3576,3.3569,3.3568,3.3566,3.3565,3.3566,3.3566,3.3564,3.3564,3.3564,3.3564,3.3564,3.3564,0,3.3621,3.3619,3.3613,3.3609,3.3608,3.3604,3.3601,3.3597,3.3595,3.3589,3.3588,3.3584,3.3579,3.3575,3.3568,3.3566,3.3559,3.3559,3.3561,3.3561,3.3558,3.3558,3.3549,3.3548,3.3554,3.3554,3.3554,0,3.3616,3.3613,3.3609,3.3606,3.3604,3.36,3.3597,3.3595,3.3592,3.3587,3.3584,3.3579,3.3575,3.3566,3.3562,3.3557,3.3556,3.3553,3.3555,3.3556,3.3556,3.3556,3.3556,3.3553,3.3553,3.3553,3.3553,0,3.3608,3.3607,3.3604,3.36,3.3597,3.3594,3.359,3.3588,3.3586,3.3583,3.3578,3.3574,3.3568,3.3563,3.3557,3.3554,3.3553,3.3552,3.3551,3.3552,3.3554,3.3553,3.356,3.3552,3.3552,3.3552,3.3552,3.3552,3.3602,3.3599,3.3596,3.3592,3.359,3.3587,3.3584,3.3582,3.3578,3.3573,3.3572,3.3567,3.3563,3.3556,3.3553,3.3549,3.3549,3.3548,3.3547,3.3547,3.3547,3.3555,3.3548,3.3548,3.3548,3.3548,3.3548,0,3.3594,3.3592,3.3589,3.3585,3.3582,3.3583,3.3579,3.3576,3.3572,3.3569,3.3565,3.356,3.3555,3.3552,3.3547,3.3544,3.3544,3.3543,3.3543,3.3542,3.3547,3.3548,3.3544,3.3544,3.3544,3.3544,3.3544,3.3544,3.3589,3.3584,3.3584,3.3578,3.3576,3.3572,3.357,3.3568,3.3565,3.356,3.3556,3.3554,3.3551,3.3546,3.3542,3.3541,3.3539,3.3539,3.3537,3.3542,3.3542,3.3542,3.3544,3.3538,3.3538,3.3533,3.3533,3.3533]}]]